Weather in Székesfehérvár

Hungary     47°11′28″N   18°25′21″E
temp.,
°C
wind,
m/s
gust,
m/s
humid.,
%
clouds,
%
prec.,
mm/h
press.,
hPa
HPBL,
m
9 may, sun
sun923:00+7ssw226693 0.0 102312
02:00+6s2268100 0.0 102313
05:00+6sse226812 0.0 102220
08:00+10sse48639 0.0 1023372
11:00+15sse68468 0.0 1022917
14:00+19sse674110 0.0 10211199
17:00+19sse68485 0.0 10201122
20:00+13se48705 0.0 1020121
10 may, mon
mon1023:00+9ese35730 0.0 102077
02:00+8e38820 0.0 1019124
05:00+7e410851 0.0 1019202
08:00+12se69675 0.0 1019405
11:00+18se685669 0.0 1017694
14:00+23sse79485 0.0 10151061
17:00+23sse5858100 0.0 10151271
20:00+18se411770 0.0 1014217
11 may, tue
tue1123:00+14se38860 0.0 1016156
02:00+12ese34890 0.0 101569
05:00+10ese37910 0.0 1015134
08:00+14ese57690 0.0 1014321
11:00+20se67574 0.0 1014800
14:00+24sse67515 0.0 10111248
17:00+24se67550 0.0 10091353
20:00+18ese49772 0.0 1008159
12 may, wed
wed1223:00+14ese387866 0.0 1008129
02:00+12e237810 0.0 100736
05:00+13e366959 0.0 1006193
08:00+14ese51071100 0.6 1005458
11:00+18se4664100 0.6 10051150
14:00+16ssw4481100 1.4 1004513
17:00+14nw8138159 4.5 1005535
20:00+11nw51188100 4.5 1005373
13 may, thu
thu1323:00+10nw4109065 0.0 1005421
02:00+11nw6138498 0.0 1004645
05:00+12wnw61181100 0.0 1004928
08:00+11w4989100 0.5 1004626
11:00+12wsw4987100 0.6 1004720
14:00+12w51083100 1.0 1004982
17:00+12w51083100 0.1 1005934
20:00+11w61185100 0.1 1006799